User: anonymous
Location: Unspecified
(0.0000°N, 0.0000°E)
Time: 10:33:39
(UTC+00:00)
Language:

CANX 3B (BRITE-ASRA) - Orbit

View from above orbital plane
View from above orbital plane
View from above satellite
View from above satellite

Ground track
Ground track

The orbit data is extracted from the following two-line orbital elements,

1 39091U 13009F   14205.04081958  .00000116  00000-0  56563-4 0  4208
2 39091 098.6181 039.5654 0010125 201.5110 158.5642 14.34706714 73613
Epoch (UTC): 24 July 2014 00:58:46
Eccentricity: 0.0010125
inclination: 98.6181°
perigee height: 769 km
apogee height: 783 km
right ascension of ascending node: 39.5654°
argument of perigee: 201.5110°
revolutions per day: 14.34706714
mean anomaly at epoch: 158.5642°
orbit number at epoch: 7361

The dashed part of the orbit path shows where the satellite is in the earth's shadow,  

DLR